Regional Weather Roundup
Issued by NWS

Home | Current Version | Previous Version | Text Only | Print | Product List | Glossary Off
Versions: 1 2 3 4 5 6 7 8 9 10 11 12 13 14 15 16 17 18 19 20 21 22 23 24 25 26 27 28 29 30 31 32 33 34 35 36 37 38 39 40 41 42 43 44 45 46 47 48 49 50

000
ASUS43 KOAX 180102
RWRNE

WEATHER ROUNDUP FOR NEBRASKA
NATIONAL WEATHER SERVICE OMAHA NE
700 PM CST FRI NOV 17 2017

NOTES: SATELLITE DATA IS BEING USED TO AUGMENT CLOUD COVER ABOVE
       12000 FEET.
       "FAIR" INDICATES FEW OR NO CLOUDS BELOW 12,000 FEET WITH NO
       SIGNIFICANT WEATHER AND/OR OBSTRUCTIONS TO VISIBILITY.


NEZ001>004-019>022-054>056-180200-
NEBRASKA PANHANDLE

CITY           SKY/WX    TMP DP  RH WIND       PRES   REMARKS
SCOTTSBLUFF    CLOUDY    45  37  73 W9        29.69R
ALLIANCE       MOCLDY    37  37 100 CALM      29.64F
CHADRON        LGT RAIN  40  35  83 N10       29.68R WCI  33
GORDON         CLOUDY    39  34  82 CALM      29.67R
KIMBALL        LGT RAIN  41  39  90 CALM      29.71R
SIDNEY         LGT RAIN  42  40  92 NW3       29.73R
$$

NEZ057>060-069>072-079>082-180200-
SOUTHWEST NEBRASKA

CITY           SKY/WX    TMP DP  RH WIND       PRES   REMARKS
NORTH PLATTE   CLEAR     44  31  60 NE6       29.64R
LEXINGTON      CLOUDY    46  33  61 N9        29.62R
MCCOOK         CLOUDY    49  33  54 NE15      29.59R
OGALLALA       CLOUDY    48  29  48 NE10      29.66R
$$

NEZ005>010-023>029-035>040-094-180200-
NORTH CENTRAL NEBRASKA

CITY           SKY/WX    TMP DP  RH WIND       PRES   REMARKS
VALENTINE      CLOUDY    43  32  65 N6        29.69R
AINSWORTH      CLOUDY    40  37  88 N5        29.69R
BROKEN BOW     MOCLDY    46  33  60 N9        29.63R
O`NEILL        LGT RAIN  41  40  95 N9        29.66R
ORD            PTCLDY    45  35  68 N17G24    29.62R
THEDFORD       RAIN      42  39  88 N7        29.68R
$$

NEZ041-046>049-061>064-073>077-083>087-180200-
SOUTH CENTRAL NEBRASKA

CITY           SKY/WX    TMP DP  RH WIND       PRES   REMARKS
GRAND ISLAND   PTCLDY    46  36  68 N10       29.61R
AURORA         MOCLDY    46  35  63 N13       29.60R
HASTINGS       CLOUDY    47  34  60 N13       29.57F
HEBRON         CLOUDY    53  42  64 N7        29.55R
HOLDREGE       LGT RAIN  45  35  69 N12G18    29.58R
KEARNEY        MOCLDY    44  34  67 N8        29.60S
YORK           MOCLDY    46  37  71 N12G18    29.60R
$$

NEZ011>018-030>034-042>045-180200-
NORTHEAST NEBRASKA

CITY           SKY/WX    TMP DP  RH WIND       PRES   REMARKS
NORFOLK        CLOUDY    44  37  76 N13       29.60R
ALBION         CLOUDY    44  36  72 N10G16    29.60S
BLAIR          MOCLDY    52  41  66 N16       29.55F
COLUMBUS       MOCLDY    46  37  71 N8        29.60R
FREMONT        PTCLDY    48  37  64 N6        29.58S
TEKAMAH        PTCLDY    48  37  65 NW9       29.58R
WAYNE          CLOUDY    45  37  73 N12       29.58F
$$

NEZ050>053-065>068-078-088>093-180200-
SOUTHEAST NEBRASKA

CITY           SKY/WX    TMP DP  RH WIND       PRES   REMARKS
LINCOLN        CLOUDY    52  38  58 N17       29.56R
OMAHA EPPLEY   MOCLDY    52  43  71 N10       29.55R
BEATRICE       PTCLDY    57  50  78 N9        29.51R
FALLS CITY     CLEAR     56  54  93 E7        29.48R
NEBRASKA CITY  CLOUDY    59  58  97 N9        29.52R
PLATTSMOUTH    CLOUDY    56  55  94 N6        29.54R FOG
$$

NEZ044-045-051>053-067-180200-
OMAHA AREA

CITY           SKY/WX    TMP DP  RH WIND       PRES   REMARKS
OMAHA EPPLEY   MOCLDY    52  43  71 N10       29.55R
BLAIR          MOCLDY    52  41  66 N16       29.55F
FREMONT        PTCLDY    48  37  64 N6        29.58S
MILLARD        CLOUDY    56  45  66 N7        29.56R
OFFUTT AFB     CLOUDY    56  52  88 N6        29.54R
PLATTSMOUTH    CLOUDY    56  55  94 N6        29.54R FOG
WAHOO          FAIR      48  37  65 N16       29.56S
$$




USA.gov is the U.S. government's official web portal to all federal, state and local government web resources and services.